Location: Roanoke
(37.2710°N, 79.9420°W)
Time: 18:28:39
(UTC-04:00)

Cosmos 1441 Rocket - Visible Passes

Search period start: 28 August 2016 00:00
Search period end: 07 September 2016 00:00
Orbit: 500 x 544 km, 81.1° (Epoch: 27 August)

Date Brightness Start Highest point End Pass type
(mag) Time Alt. Az. Time Alt. Az. Time Alt. Az.
02 Sep 6.5 22:59:50 10° N 22:59:51 10° N 22:59:51 10° N visible
03 Sep 6.3 22:46:52 10° N 22:47:04 11° N 22:47:04 11° N visible
04 Sep 6.1 22:33:54 10° N 22:34:18 13° N 22:34:18 13° N visible
05 Sep 5.9 22:20:57 10° N 22:21:34 14° N 22:21:34 14° N visible
06 Sep 5.7 22:08:00 10° N 22:08:51 16° N 22:08:51 16° N visible
